Flag for Saudi Arabia Weather past 2 weeks in Medina, Saudi Arabia

Now
61 °F

Clear.


Feels Like: 61 °F
Forecast: 45 / 83 °F
Wind: 3 mph from Southeast

Location: Madinah

Current Time: Jan 25, 2015 at 7:33:50 AM

Latest Report: Jan 25, 2015 at 6:00 AM


Visibility: 10 mi

Pressure: 30.15 "Hg

Humidity: 8%

Dew point: 0 °F

Location of MedinaLocation

Historic Weather in Medina — Graph

°F

Medina temperature yesterday

Maximum temperature yesterday: 84 °F (at 3:00 PM)
Minimum temperature yesterday: 55 °F (at 8:00 AM)
Average temperature yesterday: 71 °F

Past Weeks' High & Low Weather Summary

 TemperatureHumidityPressure
High84 °F (Jan 23, 4:00 PM)64% (Jan 15, 3:00 AM)30.39 "Hg (Jan 15, 3:00 AM)
Low39 °F (Jan 11, 8:00 AM)2% (Jan 23, 5:00 PM)30.04 "Hg (Jan 24, 4:00 PM)
Average62 °F20%30.19 "Hg
* Reported Jan 10 6:00 AM — Jan 25 6:00 AM, Medina, Weather by CustomWeather, © 2014

Note: Actual official high and low records may vary slightly from our data, if they occured in-between our weather recording intervals... More about our weather records

Advertising

Medina weather history for previous 24 hours

 ConditionsComfort  
Time TempWeatherWind HumidityBarometerVisibility
6:00 AM
Jan 25
61 °FClear.3 mph8%30.15 "Hg10 mi
5:00 AM63 °FClear.3 mph7%30.12 "Hg10 mi
4:00 AM63 °FClear.No wind6%30.12 "Hg10 mi
3:00 AM66 °FClear.6 mph5%30.15 "Hg10 mi
2:00 AM66 °FClear.7 mph5%30.15 "Hg10 mi
1:00 AM66 °FClear.5 mph5%30.12 "Hg10 mi
12:00 AM70 °FClear.6 mph4%30.12 "Hg10 mi
10:00 PM
Jan 24
73 °FClear.9 mph4%30.09 "Hg10 mi
9:00 PM79 °FClear.9 mph3%30.07 "Hg10 mi
8:00 PM79 °FClear.9 mph3%30.07 "Hg10 mi
7:00 PM81 °FClear.7 mph2%30.04 "Hg10 mi
6:00 PM82 °FClear.9 mph2%30.07 "Hg10 mi
5:00 PM84 °FSunny.14 mph2%30.04 "Hg10 mi
4:00 PM84 °FSunny.9 mph2%30.04 "Hg10 mi
3:00 PM84 °FSunny.12 mph2%30.07 "Hg10 mi
2:00 PM82 °FSunny.7 mph2%30.07 "Hg10 mi
1:00 PM81 °FClear.6 mph3%30.09 "Hg5 mi
12:00 PM77 °FClear.6 mph3%30.12 "Hg5 mi
11:00 AM73 °FClear.No wind5%30.15 "Hg5 mi
10:00 AM68 °FClear.No wind7%30.15 "Hg5 mi
9:00 AM63 °FSunny.No wind8%30.15 "Hg5 mi
8:00 AM55 °FClear.3 mph11%30.15 "Hg6 mi
7:00 AM57 °FClear.3 mph10%30.12 "Hg10 mi
Weather by CustomWeather, © 2014

See weather overviewHow to use our weather pages